| time (UTC) | temp F | wind direction | speed MPH | gust MPH | rain 1hr in | rain 24hr in | rain mn in | humidity % | barometer mb |
| 20260904122004 | 60 | 156 | 1.0 | 1.0 | 0.00 | 0.00 | 0.00 | 79 | 1011.4 |
| 20260904121503 | 60 | 350 | 1.0 | 2.0 | 0.00 | 0.00 | 0.00 | 78 | 1011.4 |
| 20260904121003 | 60 | 275 | 1.0 | 2.0 | 0.00 | 0.00 | 0.00 | 79 | 1011.4 |
| 20260904120503 | 60 | 298 | 2.0 | 3.0 | 0.00 | 0.00 | 0.00 | 78 | 1011.4 |
| 20260904120004 | 60 | 236 | 1.0 | 2.0 | 0.00 | 0.00 | 0.00 | 77 | 1011.4 |
| 20260904115503 | 60 | 237 | 1.0 | 3.0 | 0.00 | 0.00 | 0.00 | 77 | 1011.4 |
| 20260904115003 | 61 | 219 | 2.0 | 3.0 | 0.00 | 0.00 | 0.00 | 77 | 1011.4 |
| 20260904114504 | 61 | 257 | 1.0 | 2.0 | 0.00 | 0.00 | 0.00 | 77 | 1011.3 |
| 20260904113504 | 61 | 207 | 2.0 | 3.0 | 0.00 | 0.00 | 0.00 | 76 | 1011.3 |
| 20260904113004 | 62 | 208 | 2.0 | 5.0 | 0.00 | 0.00 | 0.00 | 75 | 1011.3 |
| 20260904112503 | 62 | 263 | 1.0 | 2.0 | 0.00 | 0.00 | 0.00 | 74 | 1011.3 |
| 20260904112004 | 62 | 240 | 2.0 | 3.0 | 0.00 | 0.00 | 0.00 | 74 | 1011.3 |
| 20260904111504 | 62 | 225 | 1.0 | 3.0 | 0.00 | 0.00 | 0.00 | 74 | 1011.3 |
| 20260904110504 | 63 | 225 | 2.0 | 3.0 | 0.00 | 0.00 | 0.00 | 73 | 1011.2 |
| 20260904110003 | 63 | 200 | 2.0 | 5.0 | 0.00 | 0.00 | 0.00 | 73 | 1011.1 |
| 20260904105503 | 63 | 174 | 3.0 | 6.0 | 0.00 | 0.00 | 0.00 | 72 | 1011.1 |
| 20260904105003 | 63 | 207 | 3.0 | 7.0 | 0.00 | 0.00 | 0.00 | 72 | 1011.1 |
| 20260904104504 | 64 | 181 | 3.0 | 7.0 | 0.00 | 0.00 | 0.00 | 72 | 1011.0 |
| 20260904103504 | 64 | 218 | 2.0 | 6.0 | 0.00 | 0.00 | 0.00 | 71 | 1010.9 |
| 20260904102504 | 64 | 208 | 3.0 | 7.0 | 0.00 | 0.00 | 0.00 | 71 | 1010.8 |
| 20260904101503 | 64 | 220 | 3.0 | 6.0 | 0.00 | 0.00 | 0.00 | 72 | 1010.7 |
| 20260904101003 | 64 | 229 | 5.0 | 7.0 | 0.00 | 0.00 | 0.00 | 72 | 1010.8 |
| 20260904100503 | 64 | 213 | 3.0 | 5.0 | 0.00 | 0.00 | 0.00 | 72 | 1010.8 |
| 20260904100004 | 64 | 234 | 2.0 | 5.0 | 0.00 | 0.00 | 0.00 | 73 | 1010.7 |
| 20260904095503 | 64 | 227 | 2.0 | 6.0 | 0.00 | 0.00 | 0.00 | 73 | 1010.8 |
| 20260904095003 | 64 | 204 | 1.0 | 3.0 | 0.00 | 0.00 | 0.00 | 74 | 1010.8 |
| 20260904094504 | 64 | 158 | 3.0 | 5.0 | 0.00 | 0.00 | 0.00 | 74 | 1010.7 |
| 20260904094004 | 64 | 206 | 2.0 | 5.0 | 0.00 | 0.00 | 0.00 | 75 | 1010.8 |
| 20260904093004 | 63 | 167 | 2.0 | 5.0 | 0.00 | 0.00 | 0.00 | 79 | 1010.8 |
| 20260904092503 | 63 | 202 | 2.0 | 5.0 | 0.00 | 0.00 | 0.00 | 80 | 1010.8 |
| 20260904092004 | 63 | 137 | 2.0 | 3.0 | 0.00 | 0.00 | 0.00 | 80 | 1010.8 |
| 20260904091004 | 63 | 111 | 2.0 | 2.0 | 0.00 | 0.00 | 0.00 | 80 | 1010.8 |
| 20260904090504 | 63 | 105 | 1.0 | 2.0 | 0.00 | 0.00 | 0.00 | 81 | 1010.8 |
| 20260904090004 | 63 | 195 | 1.0 | 3.0 | 0.00 | 0.00 | 0.00 | 81 | 1010.9 |
| 20260904085504 | 63 | 122 | 2.0 | 5.0 | 0.00 | 0.00 | 0.00 | 81 | 1010.8 |
| 20260904085003 | 63 | 108 | 2.0 | 5.0 | 0.00 | 0.00 | 0.00 | 81 | 1010.8 |
| 20260904084503 | 63 | 128 | 3.0 | 5.0 | 0.00 | 0.00 | 0.00 | 81 | 1010.8 |
| 20260904084003 | 64 | 138 | 3.0 | 5.0 | 0.00 | 0.00 | 0.00 | 81 | 1010.9 |
| 20260904083503 | 64 | 175 | 2.0 | 6.0 | 0.00 | 0.00 | 0.00 | 81 | 1010.9 |
| 20260904083004 | 64 | 171 | 2.0 | 6.0 | 0.00 | 0.00 | 0.00 | 81 | 1010.9 |
| 20260904082504 | 64 | 178 | 4.0 | 9.0 | 0.00 | 0.00 | 0.00 | 81 | 1011.0 |
| 20260904082004 | 64 | 142 | 4.0 | 9.0 | 0.00 | 0.00 | 0.00 | 81 | 1011.0 |
| 20260904081504 | 64 | 166 | 3.0 | 6.0 | 0.00 | 0.00 | 0.00 | 81 | 1011.1 |
| 20260904080504 | 64 | 138 | 3.0 | 8.0 | 0.00 | 0.00 | 0.00 | 82 | 1010.9 |
| 20260904075004 | 64 | 141 | 3.0 | 8.0 | 0.00 | 0.00 | 0.00 | 82 | 1010.9 |
| 20260904074004 | 63 | 122 | 4.0 | 7.0 | 0.00 | 0.00 | 0.00 | 83 | 1010.9 |
| 20260904073004 | 64 | 157 | 4.0 | 7.0 | 0.00 | 0.00 | 0.00 | 83 | 1010.9 |
| 20260904071003 | 64 | 151 | 3.0 | 6.0 | 0.00 | 0.00 | 0.00 | 82 | 1010.8 |
| 20260904070003 | 64 | 154 | 2.0 | 6.0 | 0.00 | 0.00 | 0.00 | 82 | 1010.9 |
| 20260904065503 | 64 | 170 | 3.0 | 5.0 | 0.00 | 0.00 | 0.00 | 81 | 1010.9 |
| 20260904065004 | 64 | 157 | 2.0 | 5.0 | 0.00 | 0.00 | 0.00 | 81 | 1011.0 |
| 20260904064504 | 65 | 137 | 3.0 | 6.0 | 0.00 | 0.00 | 0.00 | 80 | 1011.0 |
| 20260904064004 | 65 | 163 | 2.0 | 5.0 | 0.00 | 0.00 | 0.00 | 79 | 1011.0 |
| 20260904063504 | 65 | 140 | 4.0 | 7.0 | 0.00 | 0.00 | 0.00 | 79 | 1011.1 |
| 20260904063004 | 65 | 85 | 3.0 | 6.0 | 0.00 | 0.00 | 0.00 | 78 | 1011.1 |
| 20260904062503 | 65 | 101 | 3.0 | 5.0 | 0.00 | 0.00 | 0.00 | 77 | 1011.0 |
| 20260904062004 | 65 | 95 | 3.0 | 7.0 | 0.00 | 0.00 | 0.00 | 76 | 1011.0 |
| 20260904061504 | 65 | 99 | 2.0 | 3.0 | 0.00 | 0.00 | 0.00 | 75 | 1010.9 |
| 20260904061004 | 66 | 92 | 2.0 | 5.0 | 0.00 | 0.00 | 0.00 | 75 | 1010.8 |
| 20260904060503 | 66 | 84 | 2.0 | 5.0 | 0.00 | 0.00 | 0.00 | 74 | 1010.7 |
| 20260904060004 | 66 | 117 | 3.0 | 7.0 | 0.00 | 0.00 | 0.00 | 72 | 1010.7 |
| 20260904055503 | 66 | 106 | 2.0 | 5.0 | 0.00 | 0.00 | 0.00 | 70 | 1010.7 |
| 20260904055003 | 66 | 158 | 3.0 | 6.0 | 0.00 | 0.00 | 0.00 | 70 | 1010.7 |
| 20260904054504 | 66 | 128 | 3.0 | 6.0 | 0.00 | 0.00 | 0.00 | 70 | 1010.8 |
| 20260904054004 | 66 | 122 | 3.0 | 6.0 | 0.00 | 0.00 | 0.00 | 69 | 1010.8 |
| 20260904053503 | 66 | 173 | 2.0 | 5.0 | 0.00 | 0.00 | 0.00 | 69 | 1010.8 |
| 20260904053003 | 66 | 170 | 2.0 | 5.0 | 0.00 | 0.00 | 0.00 | 69 | 1010.9 |
| 20260904052503 | 66 | 194 | 3.0 | 6.0 | 0.00 | 0.00 | 0.00 | 69 | 1010.9 |
| 20260904052004 | 66 | 188 | 2.0 | 6.0 | 0.00 | 0.00 | 0.00 | 69 | 1011.0 |
| 20260904051504 | 66 | 183 | 3.0 | 5.0 | 0.00 | 0.00 | 0.00 | 69 | 1011.1 |
| 20260904051003 | 66 | 178 | 2.0 | 6.0 | 0.00 | 0.00 | 0.00 | 70 | 1011.1 |
| 20260904050503 | 66 | 203 | 3.0 | 6.0 | 0.00 | 0.00 | 0.00 | 70 | 1011.2 |
| 20260904045503 | 66 | 183 | 2.0 | 5.0 | 0.00 | 0.00 | 0.00 | 71 | 1011.2 |
| 20260904045004 | 66 | 201 | 2.0 | 5.0 | 0.00 | 0.00 | 0.00 | 70 | 1011.2 |
| 20260904043504 | 67 | 244 | 2.0 | 8.0 | 0.00 | 0.00 | 0.00 | 70 | 1011.3 |
| 20260904043004 | 67 | 241 | 2.0 | 5.0 | 0.00 | 0.00 | 0.00 | 70 | 1011.2 |
| 20260904042504 | 67 | 197 | 3.0 | 7.0 | 0.00 | 0.00 | 0.00 | 70 | 1011.1 |
| 20260904042004 | 67 | 192 | 4.0 | 7.0 | 0.00 | 0.00 | 0.00 | 70 | 1011.0 |
| 20260904041503 | 67 | 191 | 3.0 | 7.0 | 0.00 | 0.00 | 0.00 | 69 | 1011.0 |
| 20260904041003 | 67 | 194 | 2.0 | 7.0 | 0.00 | 0.00 | 0.00 | 69 | 1011.0 |
| 20260904035504 | 67 | 163 | 3.0 | 6.0 | 0.00 | 0.00 | 0.00 | 69 | 1011.0 |
| 20260904035004 | 67 | 224 | 3.0 | 6.0 | 0.00 | 0.00 | 0.00 | 70 | 1011.0 |
| 20260904034504 | 67 | 179 | 2.0 | 6.0 | 0.00 | 0.00 | 0.00 | 70 | 1010.9 |
| 20260904033504 | 67 | 201 | 2.0 | 5.0 | 0.00 | 0.00 | 0.00 | 70 | 1010.8 |
| 20260904033004 | 67 | 199 | 3.0 | 5.0 | 0.00 | 0.00 | 0.00 | 69 | 1010.7 |
| 20260904032503 | 67 | 144 | 1.0 | 3.0 | 0.00 | 0.00 | 0.00 | 69 | 1010.7 |
| 20260904032004 | 67 | 175 | 2.0 | 3.0 | 0.00 | 0.00 | 0.00 | 69 | 1010.6 |
| 20260904031504 | 67 | 153 | 3.0 | 6.0 | 0.00 | 0.00 | 0.00 | 69 | 1010.5 |
| 20260904031003 | 67 | 188 | 2.0 | 5.0 | 0.00 | 0.00 | 0.00 | 69 | 1010.5 |
| 20260904030503 | 67 | 161 | 3.0 | 6.0 | 0.00 | 0.00 | 0.00 | 69 | 1010.4 |
| 20260904030003 | 67 | 147 | 3.0 | 6.0 | 0.00 | 0.00 | 0.00 | 68 | 1010.4 |
| 20260904025503 | 67 | 123 | 2.0 | 6.0 | 0.00 | 0.00 | 0.00 | 68 | 1010.4 |
| 20260904025005 | 67 | 154 | 3.0 | 6.0 | 0.00 | 0.00 | 0.00 | 69 | 1010.5 |
| 20260904024004 | 67 | 172 | 2.0 | 3.0 | 0.00 | 0.00 | 0.00 | 68 | 1010.7 |
| 20260904023504 | 67 | 168 | 1.0 | 3.0 | 0.00 | 0.00 | 0.00 | 69 | 1010.8 |
| 20260904023004 | 67 | 197 | 1.0 | 3.0 | 0.00 | 0.00 | 0.00 | 68 | 1010.8 |
| 20260904022504 | 67 | 197 | 2.0 | 3.0 | 0.00 | 0.00 | 0.00 | 68 | 1010.9 |
| 20260904022003 | 67 | 304 | 1.0 | 3.0 | 0.00 | 0.00 | 0.00 | 67 | 1010.9 |
| 20260904021504 | 67 | 219 | 3.0 | 6.0 | 0.00 | 0.00 | 0.00 | 67 | 1011.0 |
| 20260904021003 | 67 | 241 | 3.0 | 7.0 | 0.00 | 0.00 | 0.00 | 67 | 1011.1 |
| 20260904020503 | 68 | 221 | 4.0 | 7.0 | 0.00 | 0.00 | 0.00 | 65 | 1011.0 |
| 20260904015004 | 68 | 230 | 4.0 | 8.0 | 0.00 | 0.00 | 0.00 | 63 | 1011.0 |
| 20260904014503 | 69 | 234 | 4.0 | 7.0 | 0.00 | 0.00 | 0.00 | 63 | 1011.0 |
| 20260904014004 | 69 | 221 | 6.0 | 10.0 | 0.00 | 0.00 | 0.00 | 62 | 1010.9 |
| 20260904013504 | 69 | 243 | 3.0 | 7.0 | 0.00 | 0.00 | 0.00 | 62 | 1010.9 |
| 20260904013004 | 69 | 240 | 5.0 | 9.0 | 0.00 | 0.00 | 0.00 | 62 | 1010.9 |
| 20260904012504 | 69 | 239 | 2.0 | 9.0 | 0.00 | 0.00 | 0.00 | 62 | 1011.0 |
| 20260904012004 | 69 | 250 | 5.0 | 10.0 | 0.00 | 0.00 | 0.00 | 63 | 1011.0 |
| 20260904011504 | 69 | 240 | 3.0 | 9.0 | 0.00 | 0.00 | 0.00 | 64 | 1011.0 |
| 20260904011003 | 69 | 266 | 3.0 | 9.0 | 0.00 | 0.00 | 0.00 | 64 | 1011.1 |
| 20260904010504 | 69 | 203 | 5.0 | 6.0 | 0.00 | 0.00 | 0.00 | 66 | 1011.1 |
| 20260904010004 | 69 | 250 | 5.0 | 12.0 | 0.00 | 0.00 | 0.00 | 65 | 1011.2 |
| 20260904005504 | 69 | 220 | 5.0 | 9.0 | 0.00 | 0.00 | 0.00 | 64 | 1011.2 |
| 20260904005004 | 69 | 235 | 3.0 | 7.0 | 0.00 | 0.00 | 0.00 | 65 | 1011.2 |
| 20260904004503 | 69 | 215 | 5.0 | 9.0 | 0.00 | 0.00 | 0.00 | 65 | 1011.2 |
| 20260904004004 | 69 | 207 | 6.0 | 10.0 | 0.00 | 0.00 | 0.00 | 66 | 1011.2 |
| 20260904003004 | 70 | 194 | 7.0 | 13.0 | 0.00 | 0.00 | 0.00 | 64 | 1011.2 |
| 20260904002504 | 70 | 204 | 5.0 | 9.0 | 0.00 | 0.00 | 0.00 | 65 | 1011.3 |
| 20260904002003 | 70 | 202 | 3.0 | 10.0 | 0.00 | 0.00 | 0.00 | 66 | 1011.3 |
| 20260904001503 | 71 | 221 | 6.0 | 13.0 | 0.00 | 0.00 | 0.00 | 66 | 1011.3 |
| 20260904001004 | 71 | 224 | 3.0 | 9.0 | 0.00 | 0.00 | 0.00 | 66 | 1011.3 |
| 20260904000503 | 71 | 175 | 3.0 | 9.0 | 0.00 | 0.00 | 0.00 | 66 | 1011.3 |
| 20260904000004 | 71 | 182 | 5.0 | 13.0 | 0.00 | 0.00 | 0.00 | 66 | 1011.3 |
| 20260903235504 | 71 | 179 | 5.0 | 9.0 | 0.00 | 0.00 | 0.00 | 64 | 1011.3 |
| 20260903235003 | 72 | 226 | 4.0 | 10.0 | 0.00 | 0.00 | 0.00 | 64 | 1011.2 |
| 20260903234004 | 72 | 202 | 3.0 | 8.0 | 0.00 | 0.00 | 0.00 | 63 | 1011.2 |
| 20260903233504 | 72 | 236 | 3.0 | 10.0 | 0.00 | 0.00 | 0.00 | 63 | 1011.2 |
| 20260903233004 | 72 | 150 | 4.0 | 10.0 | 0.00 | 0.00 | 0.00 | 63 | 1011.3 |
| 20260903232004 | 72 | 186 | 5.0 | 13.0 | 0.00 | 0.00 | 0.00 | 62 | 1011.4 |
| 20260903231504 | 72 | 191 | 7.0 | 13.0 | 0.00 | 0.00 | 0.00 | 62 | 1011.4 |
| 20260903231004 | 73 | 197 | 6.0 | 10.0 | 0.00 | 0.00 | 0.00 | 61 | 1011.4 |
| 20260903230504 | 73 | 143 | 6.0 | 13.0 | 0.00 | 0.00 | 0.00 | 62 | 1011.4 |
| 20260903230003 | 73 | 194 | 6.0 | 14.0 | 0.00 | 0.00 | 0.00 | 60 | 1011.5 |
| 20260903225504 | 73 | 206 | 3.0 | 13.0 | 0.00 | 0.00 | 0.00 | 59 | 1011.5 |
| 20260903225004 | 73 | 207 | 6.0 | 13.0 | 0.00 | 0.00 | 0.00 | 60 | 1011.6 |
| 20260903224504 | 73 | 199 | 7.0 | 13.0 | 0.00 | 0.00 | 0.00 | 59 | 1011.6 |
| 20260903224004 | 73 | 192 | 5.0 | 12.0 | 0.00 | 0.00 | 0.00 | 59 | 1011.6 |
| 20260903223504 | 73 | 201 | 7.0 | 13.0 | 0.00 | 0.00 | 0.00 | 58 | 1011.6 |
| 20260903222503 | 74 | 178 | 5.0 | 9.0 | 0.00 | 0.00 | 0.00 | 57 | 1011.7 |
| 20260903222003 | 73 | 175 | 4.0 | 12.0 | 0.00 | 0.00 | 0.00 | 56 | 1011.7 |
| 20260903221504 | 73 | 178 | 7.0 | 12.0 | 0.00 | 0.00 | 0.00 | 57 | 1011.8 |
| 20260903221004 | 73 | 166 | 7.0 | 14.0 | 0.00 | 0.00 | 0.00 | 57 | 1011.8 |
| 20260903220504 | 73 | 165 | 8.0 | 18.0 | 0.00 | 0.00 | 0.00 | 57 | 1011.8 |
| 20260903220003 | 73 | 174 | 6.0 | 12.0 | 0.00 | 0.00 | 0.00 | 57 | 1011.9 |
| 20260903215504 | 73 | 166 | 5.0 | 9.0 | 0.00 | 0.00 | 0.00 | 58 | 1011.9 |
| 20260903215004 | 72 | 197 | 5.0 | 10.0 | 0.00 | 0.00 | 0.00 | 60 | 1011.9 |
| 20260903214504 | 72 | 177 | 7.0 | 10.0 | 0.00 | 0.00 | 0.00 | 62 | 1011.9 |
| 20260903214004 | 72 | 155 | 6.0 | 12.0 | 0.00 | 0.00 | 0.00 | 62 | 1011.9 |
| 20260903213504 | 71 | 149 | 5.0 | 12.0 | 0.00 | 0.00 | 0.00 | 63 | 1012.0 |
| 20260903213004 | 71 | 177 | 6.0 | 13.0 | 0.00 | 0.00 | 0.00 | 63 | 1012.1 |
| 20260903212004 | 71 | 186 | 7.0 | 13.0 | 0.00 | 0.00 | 0.00 | 63 | 1012.1 |
| 20260903211503 | 72 | 149 | 6.0 | 9.0 | 0.00 | 0.00 | 0.00 | 62 | 1012.1 |
| 20260903211003 | 71 | 151 | 6.0 | 10.0 | 0.00 | 0.00 | 0.00 | 63 | 1012.2 |
| 20260903210504 | 71 | 182 | 5.0 | 10.0 | 0.00 | 0.00 | 0.00 | 63 | 1012.2 |
| 20260903210003 | 71 | 157 | 3.0 | 9.0 | 0.00 | 0.00 | 0.00 | 63 | 1012.3 |
| 20260903205503 | 71 | 184 | 6.0 | 10.0 | 0.00 | 0.00 | 0.00 | 63 | 1012.5 |
| 20260903205004 | 71 | 164 | 5.0 | 12.0 | 0.00 | 0.00 | 0.00 | 63 | 1012.5 |
| 20260903203504 | 71 | 93 | 5.0 | 9.0 | 0.00 | 0.00 | 0.00 | 63 | 1012.6 |
| 20260903203004 | 71 | 177 | 5.0 | 9.0 | 0.00 | 0.00 | 0.00 | 63 | 1012.6 |
| 20260903202504 | 71 | 168 | 4.0 | 14.0 | 0.00 | 0.00 | 0.00 | 64 | 1012.6 |
| 20260903201503 | 71 | 153 | 6.0 | 12.0 | 0.00 | 0.00 | 0.00 | 64 | 1012.7 |
| 20260903201003 | 70 | 180 | 5.0 | 9.0 | 0.00 | 0.00 | 0.00 | 64 | 1012.8 |
| 20260903200504 | 70 | 190 | 6.0 | 12.0 | 0.00 | 0.00 | 0.00 | 65 | 1012.8 |
| 20260903200004 | 70 | 161 | 6.0 | 12.0 | 0.00 | 0.00 | 0.00 | 66 | 1012.9 |
| 20260903195503 | 70 | 171 | 6.0 | 12.0 | 0.00 | 0.00 | 0.00 | 65 | 1012.9 |
| 20260903195003 | 70 | 176 | 8.0 | 13.0 | 0.00 | 0.00 | 0.00 | 65 | 1013.0 |
| 20260903194504 | 70 | 195 | 7.0 | 14.0 | 0.00 | 0.00 | 0.00 | 65 | 1013.0 |
| 20260903194004 | 70 | 166 | 9.0 | 16.0 | 0.00 | 0.00 | 0.00 | 65 | 1013.0 |
| 20260903193504 | 70 | 201 | 5.0 | 13.0 | 0.00 | 0.00 | 0.00 | 65 | 1013.0 |
| 20260903193003 | 70 | 169 | 7.0 | 13.0 | 0.00 | 0.00 | 0.00 | 66 | 1013.2 |
| 20260903192004 | 69 | 170 | 7.0 | 14.0 | 0.00 | 0.00 | 0.00 | 66 | 1013.3 |
| 20260903191503 | 69 | 166 | 6.0 | 17.0 | 0.00 | 0.00 | 0.00 | 67 | 1013.4 |
| 20260903191005 | 69 | 161 | 6.0 | 14.0 | 0.00 | 0.00 | 0.00 | 67 | 1013.4 |
| 20260903190504 | 69 | 176 | 9.0 | 16.0 | 0.00 | 0.00 | 0.00 | 67 | 1013.5 |
| 20260903190004 | 69 | 172 | 6.0 | 12.0 | 0.00 | 0.00 | 0.00 | 66 | 1013.5 |
| 20260903185004 | 69 | 153 | 5.0 | 10.0 | 0.00 | 0.00 | 0.00 | 67 | 1013.6 |
| 20260903184504 | 69 | 140 | 5.0 | 10.0 | 0.00 | 0.00 | 0.00 | 67 | 1013.7 |
| 20260903184004 | 69 | 204 | 5.0 | 9.0 | 0.00 | 0.00 | 0.00 | 67 | 1013.8 |
| 20260903183504 | 69 | 135 | 5.0 | 12.0 | 0.00 | 0.00 | 0.00 | 69 | 1013.7 |
| 20260903183004 | 69 | 182 | 5.0 | 13.0 | 0.00 | 0.00 | 0.00 | 69 | 1013.7 |
| 20260903182503 | 69 | 171 | 6.0 | 14.0 | 0.00 | 0.00 | 0.00 | 69 | 1013.8 |
| 20260903181504 | 69 | 154 | 5.0 | 10.0 | 0.00 | 0.00 | 0.00 | 68 | 1013.7 |
| 20260903181004 | 69 | 184 | 6.0 | 14.0 | 0.00 | 0.00 | 0.00 | 68 | 1013.7 |
| 20260903180504 | 69 | 154 | 7.0 | 12.0 | 0.00 | 0.00 | 0.00 | 69 | 1013.7 |
| 20260903180004 | 69 | 179 | 6.0 | 12.0 | 0.00 | 0.00 | 0.00 | 68 | 1013.8 |
| 20260903175504 | 69 | 174 | 6.0 | 12.0 | 0.00 | 0.00 | 0.00 | 68 | 1013.7 |
| 20260903175004 | 69 | 192 | 5.0 | 10.0 | 0.00 | 0.00 | 0.00 | 68 | 1013.7 |
| 20260903174504 | 69 | 133 | 7.0 | 12.0 | 0.00 | 0.00 | 0.00 | 69 | 1013.7 |
| 20260903173503 | 69 | 150 | 6.0 | 10.0 | 0.00 | 0.00 | 0.00 | 69 | 1013.6 |
| 20260903172504 | 68 | 166 | 4.0 | 9.0 | 0.00 | 0.00 | 0.00 | 70 | 1013.8 |
| 20260903172003 | 68 | 155 | 4.0 | 7.0 | 0.00 | 0.00 | 0.00 | 71 | 1013.9 |
| 20260903171004 | 67 | 186 | 5.0 | 10.0 | 0.00 | 0.00 | 0.00 | 73 | 1013.8 |
| 20260903170004 | 67 | 178 | 3.0 | 9.0 | 0.00 | 0.00 | 0.00 | 73 | 1013.8 |
| 20260903165504 | 67 | 192 | 5.0 | 9.0 | 0.00 | 0.00 | 0.00 | 73 | 1013.9 |
| 20260903165004 | 67 | 197 | 2.0 | 10.0 | 0.00 | 0.00 | 0.00 | 74 | 1013.9 |
| 20260903164503 | 66 | 176 | 5.0 | 9.0 | 0.00 | 0.00 | 0.00 | 75 | 1014.0 |
| 20260903163004 | 66 | 168 | 4.0 | 8.0 | 0.00 | 0.00 | 0.00 | 75 | 1014.1 |
| 20260903162504 | 65 | 148 | 4.0 | 9.0 | 0.00 | 0.00 | 0.00 | 76 | 1014.0 |
| 20260903161504 | 65 | 143 | 3.0 | 7.0 | 0.00 | 0.00 | 0.00 | 76 | 1014.1 |
| 20260903161004 | 65 | 162 | 4.0 | 8.0 | 0.00 | 0.00 | 0.00 | 77 | 1014.1 |
| 20260903160004 | 64 | 162 | 2.0 | 6.0 | 0.00 | 0.00 | 0.00 | 79 | 1014.3 |
| 20260903155503 | 63 | 144 | 2.0 | 5.0 | 0.00 | 0.00 | 0.00 | 81 | 1014.4 |
| 20260903154504 | 63 | 134 | 3.0 | 6.0 | 0.00 | 0.00 | 0.00 | 81 | 1014.4 |
| 20260903154004 | 63 | 144 | 3.0 | 8.0 | 0.00 | 0.00 | 0.00 | 80 | 1014.4 |
| 20260903153504 | 63 | 105 | 3.0 | 8.0 | 0.00 | 0.00 | 0.00 | 79 | 1014.4 |
| 20260903152504 | 63 | 152 | 3.0 | 6.0 | 0.00 | 0.00 | 0.00 | 80 | 1014.4 |
| 20260903151504 | 64 | 143 | 3.0 | 7.0 | 0.00 | 0.00 | 0.00 | 77 | 1014.4 |
| 20260903151004 | 64 | 192 | 3.0 | 7.0 | 0.00 | 0.00 | 0.00 | 76 | 1014.3 |
| 20260903150504 | 64 | 150 | 3.0 | 7.0 | 0.00 | 0.00 | 0.00 | 76 | 1014.3 |
| 20260903145505 | 64 | 147 | 5.0 | 8.0 | 0.00 | 0.00 | 0.00 | 75 | 1014.3 |
| 20260903145004 | 63 | 138 | 3.0 | 8.0 | 0.00 | 0.00 | 0.00 | 76 | 1014.3 |
| 20260903144503 | 63 | 131 | 4.0 | 9.0 | 0.00 | 0.00 | 0.00 | 76 | 1014.1 |
| 20260903143504 | 63 | 178 | 3.0 | 8.0 | 0.00 | 0.00 | 0.00 | 76 | 1014.2 |
| 20260903143004 | 63 | 143 | 2.0 | 5.0 | 0.00 | 0.00 | 0.00 | 76 | 1014.2 |
| 20260903142504 | 63 | 163 | 5.0 | 8.0 | 0.00 | 0.00 | 0.00 | 76 | 1014.2 |
| 20260903142004 | 63 | 137 | 3.0 | 8.0 | 0.00 | 0.00 | 0.00 | 76 | 1014.2 |
| 20260903141504 | 63 | 159 | 3.0 | 8.0 | 0.00 | 0.00 | 0.00 | 75 | 1014.1 |
| 20260903141004 | 63 | 152 | 2.0 | 8.0 | 0.00 | 0.00 | 0.00 | 74 | 1014.1 |
| 20260903140504 | 63 | 140 | 3.0 | 9.0 | 0.00 | 0.00 | 0.00 | 73 | 1013.9 |
| 20260903140003 | 63 | 126 | 2.0 | 6.0 | 0.00 | 0.00 | 0.00 | 72 | 1013.9 |
| 20260903135504 | 63 | 120 | 3.0 | 6.0 | 0.00 | 0.00 | 0.00 | 72 | 1013.8 |
| 20260903135004 | 63 | 132 | 3.0 | 6.0 | 0.00 | 0.00 | 0.00 | 71 | 1013.8 |
| 20260903134504 | 64 | 140 | 3.0 | 8.0 | 0.00 | 0.00 | 0.00 | 70 | 1013.7 |
| 20260903133004 | 64 | 161 | 5.0 | 9.0 | 0.00 | 0.00 | 0.00 | 68 | 1013.7 |
| 20260903132504 | 64 | 190 | 4.0 | 10.0 | 0.00 | 0.00 | 0.00 | 68 | 1013.6 |
| 20260903132004 | 64 | 223 | 3.0 | 9.0 | 0.00 | 0.00 | 0.00 | 68 | 1013.6 |
| 20260903131004 | 64 | 185 | 3.0 | 8.0 | 0.00 | 0.00 | 0.00 | 68 | 1013.8 |
| 20260903130504 | 64 | 190 | 3.0 | 8.0 | 0.00 | 0.00 | 0.00 | 68 | 1013.8 |
| 20260903130004 | 64 | 196 | 3.0 | 9.0 | 0.00 | 0.00 | 0.00 | 68 | 1013.8 |
| 20260903125503 | 64 | 193 | 3.0 | 7.0 | 0.00 | 0.00 | 0.00 | 67 | 1013.8 |
| 20260903125004 | 64 | 175 | 5.0 | 8.0 | 0.00 | 0.00 | 0.00 | 67 | 1013.8 |
| 20260903124504 | 64 | 192 | 3.0 | 9.0 | 0.00 | 0.00 | 0.00 | 67 | 1013.8 |
| 20260903124004 | 64 | 194 | 3.0 | 12.0 | 0.00 | 0.00 | 0.00 | 67 | 1013.8 |
| 20260903123504 | 64 | 195 | 4.0 | 9.0 | 0.00 | 0.00 | 0.00 | 67 | 1013.8 |
| 20260903123004 | 64 | 196 | 5.0 | 9.0 | 0.00 | 0.00 | 0.00 | 67 | 1013.9 |
| 20260903122504 | 64 | 197 | 5.0 | 9.0 | 0.00 | 0.00 | 0.00 | 67 | 1013.8 |